Starlink 1012

operational
NORAD ID: 44718 Int'l Des: 2019-074 Owner: SPXS Country: US Constellation: starlink
LEOCIRCULARSTARLINK_TYPE

关于 Starlink 1012

正在加载描述...

实时位置

正在加载3D地球...

即将过境

高度历史

Altitude vs Time

uPlot chart will show altitude changes over time

两行轨道根数

1 44718U 19074F 25303.70923678 -.00000773 00000-0 -32990-4 0 9996
2 44718 53.0546 50.1200 0001906 127.1563 232.9601 15.06391321329152
Epoch: Oct 30, 2025 • Age: 25 hours

当前状态

高度 546.3 km
速度 7.59 km/s
星下点 17.37°N, 92.36°W
发射日期 Nov 11, 2019
运行时间 5.9 years
类型 internet

技术详情

分类 Payload
质量 260.00 kg
干质量 248.00 kg
总质量 260.00 kg
长度 0.20 m
直径 2.80 m
跨度 9.00 m
形状 Box + pan
制造商 SPXS
平台类型 Starlink
阶段状态 In Orbit
所有者/国家 SPXS/US

大型星座

Loading constellations...